Year,Month,Day,Hour,Minute,Value (Times are PST for windgust in km/hr)
2016,10,15,00,00,19.30
2016,10,15,00,01,11.30
2016,10,15,00,02,11.30
2016,10,15,00,03,11.30
2016,10,15,00,04,6.40
2016,10,15,00,05,9.60
2016,10,15,00,06,6.40
2016,10,15,00,07,6.40
2016,10,15,00,08,8.10
2016,10,15,00,09,9.60
2016,10,15,00,10,6.40
2016,10,15,00,11,8.10
2016,10,15,00,12,11.30
2016,10,15,00,13,6.40
2016,10,15,00,14,9.60
2016,10,15,00,15,6.40
2016,10,15,00,16,8.10
2016,10,15,00,17,12.90
2016,10,15,00,18,11.30
2016,10,15,00,19,8.10
2016,10,15,00,20,6.40
2016,10,15,00,21,8.10
2016,10,15,00,22,6.40
2016,10,15,00,23,4.80
2016,10,15,00,24,3.20
2016,10,15,00,25,4.80
2016,10,15,00,26,1.60
2016,10,15,00,27,3.20
2016,10,15,00,28,4.80
2016,10,15,00,29,9.60
2016,10,15,00,30,11.30
2016,10,15,00,31,9.60
2016,10,15,00,32,8.10
2016,10,15,00,33,6.40
2016,10,15,00,34,6.40
2016,10,15,00,35,8.10
2016,10,15,00,36,4.80
2016,10,15,00,37,4.80
2016,10,15,00,38,4.80
2016,10,15,00,39,6.40
2016,10,15,00,40,6.40
2016,10,15,00,41,4.80
2016,10,15,00,42,4.80
2016,10,15,00,43,8.10
2016,10,15,00,44,4.80
2016,10,15,00,45,8.10
2016,10,15,00,46,4.80
2016,10,15,00,47,4.80
2016,10,15,00,48,4.80
2016,10,15,00,49,3.20
2016,10,15,00,50,1.60
2016,10,15,00,51,4.80
2016,10,15,00,52,3.20
2016,10,15,00,53,4.80
2016,10,15,00,54,3.20
2016,10,15,00,55,3.20
2016,10,15,00,56,1.60
2016,10,15,00,57,1.60
2016,10,15,00,58,8.10
2016,10,15,00,59,12.90
2016,10,15,01,00,8.10
2016,10,15,01,01,4.80
2016,10,15,01,02,3.20
2016,10,15,01,03,3.20
2016,10,15,01,04,3.20
2016,10,15,01,05,3.20
2016,10,15,01,06,1.60
2016,10,15,01,07,4.80
2016,10,15,01,08,6.40
2016,10,15,01,09,6.40
2016,10,15,01,10,6.40
2016,10,15,01,11,4.80
2016,10,15,01,12,4.80
2016,10,15,01,13,3.20
2016,10,15,01,14,4.80
2016,10,15,01,15,3.20
2016,10,15,01,16,3.20
2016,10,15,01,17,4.80
2016,10,15,01,18,4.80
2016,10,15,01,19,1.60
2016,10,15,01,22,4.80
2016,10,15,01,23,4.80
2016,10,15,01,24,6.40
2016,10,15,01,25,3.20
2016,10,15,01,26,1.60
2016,10,15,01,27,1.60
2016,10,15,01,31,1.60
2016,10,15,01,32,1.60
2016,10,15,01,33,1.60
2016,10,15,01,35,1.60
2016,10,15,01,36,1.60
2016,10,15,01,37,3.20
2016,10,15,01,38,3.20
2016,10,15,01,39,3.20
2016,10,15,01,40,1.60
2016,10,15,01,41,4.80
2016,10,15,01,42,11.30
2016,10,15,01,43,6.40
2016,10,15,01,44,6.40
2016,10,15,01,45,4.80
2016,10,15,01,46,8.10
2016,10,15,01,47,4.80
2016,10,15,01,48,4.80
2016,10,15,01,49,4.80
2016,10,15,01,50,3.20
2016,10,15,01,51,3.20
2016,10,15,01,52,6.40
2016,10,15,01,53,6.40
2016,10,15,01,54,8.10
2016,10,15,01,55,8.10
2016,10,15,01,56,8.10
2016,10,15,01,57,6.40
2016,10,15,01,58,3.20
2016,10,15,01,59,4.80
2016,10,15,02,00,4.80
2016,10,15,02,01,3.20
2016,10,15,02,02,3.20
2016,10,15,02,03,3.20
2016,10,15,02,04,14.50
2016,10,15,02,05,9.60
2016,10,15,02,06,4.80
2016,10,15,02,07,3.20
2016,10,15,02,08,3.20
2016,10,15,02,09,3.20
2016,10,15,02,10,1.60
2016,10,15,02,11,6.40
2016,10,15,02,12,4.80
2016,10,15,02,13,4.80
2016,10,15,02,14,6.40
2016,10,15,02,15,6.40
2016,10,15,02,16,4.80
2016,10,15,02,17,4.80
2016,10,15,02,18,4.80
2016,10,15,02,19,3.20
2016,10,15,02,20,4.80
2016,10,15,02,21,8.10
2016,10,15,02,22,8.10
2016,10,15,02,23,6.40
2016,10,15,02,24,8.10
2016,10,15,02,25,6.40
2016,10,15,02,26,6.40
2016,10,15,02,27,6.40
2016,10,15,02,28,9.60
2016,10,15,02,29,8.10
2016,10,15,02,30,8.10
2016,10,15,02,31,6.40
2016,10,15,02,32,3.20
2016,10,15,02,33,6.40
2016,10,15,02,34,8.10
2016,10,15,02,35,4.80
2016,10,15,02,36,4.80
2016,10,15,02,37,6.40
2016,10,15,02,38,4.80
2016,10,15,02,39,3.20
2016,10,15,02,40,4.80
2016,10,15,02,41,6.40
2016,10,15,02,42,6.40
2016,10,15,02,43,6.40
2016,10,15,02,44,8.10
2016,10,15,02,45,6.40
2016,10,15,02,46,8.10
2016,10,15,02,47,4.80
2016,10,15,02,48,8.10
2016,10,15,02,49,4.80
2016,10,15,02,50,6.40
2016,10,15,02,51,6.40
2016,10,15,02,52,9.60
2016,10,15,02,53,6.40
2016,10,15,02,54,4.80
2016,10,15,02,55,4.80
2016,10,15,02,56,4.80
2016,10,15,02,57,6.40
2016,10,15,02,58,4.80
2016,10,15,02,59,4.80
2016,10,15,03,00,4.80
2016,10,15,03,01,4.80
2016,10,15,03,02,6.40
2016,10,15,03,03,6.40
2016,10,15,03,04,4.80
2016,10,15,03,05,3.20
2016,10,15,03,06,3.20
2016,10,15,03,07,3.20
2016,10,15,03,08,4.80
2016,10,15,03,09,3.20
2016,10,15,03,10,6.40
2016,10,15,03,11,6.40
2016,10,15,03,12,11.30
2016,10,15,03,13,8.10
2016,10,15,03,14,6.40
2016,10,15,03,15,6.40
2016,10,15,03,16,6.40
2016,10,15,03,17,12.90
2016,10,15,03,18,12.90
2016,10,15,03,19,8.10
2016,10,15,03,20,6.40
2016,10,15,03,21,6.40
2016,10,15,03,22,4.80
2016,10,15,03,23,6.40
2016,10,15,03,24,6.40
2016,10,15,03,25,6.40
2016,10,15,03,26,3.20
2016,10,15,03,27,3.20
2016,10,15,03,28,4.80
2016,10,15,03,29,4.80
2016,10,15,03,30,1.60
2016,10,15,03,31,8.10
2016,10,15,03,32,6.40
2016,10,15,03,33,8.10
2016,10,15,03,34,6.40
2016,10,15,03,35,8.10
2016,10,15,03,36,4.80
2016,10,15,03,37,9.60
2016,10,15,03,38,9.60
2016,10,15,03,39,11.30
2016,10,15,03,40,8.10
2016,10,15,03,41,8.10
2016,10,15,03,42,8.10
2016,10,15,03,43,4.80
2016,10,15,03,44,4.80
2016,10,15,03,45,8.10
2016,10,15,03,46,6.40
2016,10,15,03,47,12.90
2016,10,15,03,48,11.30
2016,10,15,03,49,6.40
2016,10,15,03,50,6.40
2016,10,15,03,51,4.80
2016,10,15,03,52,6.40
2016,10,15,03,53,4.80
2016,10,15,03,54,8.10
2016,10,15,03,55,6.40
2016,10,15,03,56,8.10
2016,10,15,03,57,8.10
2016,10,15,03,58,6.40
2016,10,15,03,59,6.40
2016,10,15,04,00,12.90
2016,10,15,04,01,11.30
2016,10,15,04,02,4.80
2016,10,15,04,03,6.40
2016,10,15,04,04,6.40
2016,10,15,04,05,4.80
2016,10,15,04,06,6.40
2016,10,15,04,07,6.40
2016,10,15,04,08,4.80
2016,10,15,04,09,4.80
2016,10,15,04,10,6.40
2016,10,15,04,11,12.90
2016,10,15,04,12,11.30
2016,10,15,04,13,9.60
2016,10,15,04,14,4.80
2016,10,15,04,15,4.80
2016,10,15,04,16,8.10
2016,10,15,04,17,8.10
2016,10,15,04,18,12.90
2016,10,15,04,19,11.30
2016,10,15,04,20,11.30
2016,10,15,04,21,4.80
2016,10,15,04,22,8.10
2016,10,15,04,23,11.30
2016,10,15,04,24,8.10
2016,10,15,04,25,9.60
2016,10,15,04,26,4.80
2016,10,15,04,27,8.10
2016,10,15,04,28,16.10
2016,10,15,04,29,4.80
2016,10,15,04,30,3.20
2016,10,15,04,31,6.40
2016,10,15,04,32,9.60
2016,10,15,04,33,9.60
2016,10,15,04,34,6.40
2016,10,15,04,35,4.80
2016,10,15,04,36,6.40
2016,10,15,04,37,8.10
2016,10,15,04,38,6.40
2016,10,15,04,39,9.60
2016,10,15,04,40,6.40
2016,10,15,04,41,8.10
2016,10,15,04,42,8.10
2016,10,15,04,43,4.80
2016,10,15,04,44,6.40
2016,10,15,04,45,12.90
2016,10,15,04,46,9.60
2016,10,15,04,47,11.30
2016,10,15,04,48,8.10
2016,10,15,04,49,11.30
2016,10,15,04,50,12.90
2016,10,15,04,51,11.30
2016,10,15,04,52,8.10
2016,10,15,04,53,11.30
2016,10,15,04,54,6.40
2016,10,15,04,55,14.50
2016,10,15,04,56,6.40
2016,10,15,04,57,11.30
2016,10,15,04,58,11.30
2016,10,15,04,59,6.40
2016,10,15,05,00,8.10
2016,10,15,05,01,11.30
2016,10,15,05,02,4.80
2016,10,15,05,03,6.40
2016,10,15,05,04,8.10
2016,10,15,05,05,6.40
2016,10,15,05,06,6.40
2016,10,15,05,07,8.10
2016,10,15,05,08,6.40
2016,10,15,05,09,11.30
2016,10,15,05,10,4.80
2016,10,15,05,11,6.40
2016,10,15,05,12,8.10
2016,10,15,05,13,9.60
2016,10,15,05,14,4.80
2016,10,15,05,15,4.80
2016,10,15,05,16,4.80
2016,10,15,05,17,4.80
2016,10,15,05,18,8.10
2016,10,15,05,19,6.40
2016,10,15,05,20,1.60
2016,10,15,05,21,6.40
2016,10,15,05,22,4.80
2016,10,15,05,23,3.20
2016,10,15,05,24,3.20
2016,10,15,05,25,3.20
2016,10,15,05,26,3.20
2016,10,15,05,27,3.20
2016,10,15,05,28,3.20
2016,10,15,05,29,3.20
2016,10,15,05,30,3.20
2016,10,15,05,31,6.40
2016,10,15,05,32,8.10
2016,10,15,05,33,4.80
2016,10,15,05,34,4.80
2016,10,15,05,35,3.20
2016,10,15,05,36,3.20
2016,10,15,05,37,4.80
2016,10,15,05,38,9.60
2016,10,15,05,39,6.40
2016,10,15,05,40,3.20
2016,10,15,05,41,8.10
2016,10,15,05,42,1.60
2016,10,15,05,43,1.60
2016,10,15,05,44,8.10
2016,10,15,05,45,9.60
2016,10,15,05,46,4.80
2016,10,15,05,47,3.20
2016,10,15,05,48,3.20
2016,10,15,05,49,3.20
2016,10,15,05,50,8.10
2016,10,15,05,51,4.80
2016,10,15,05,52,11.30
2016,10,15,05,53,8.10
2016,10,15,05,54,3.20
2016,10,15,05,55,1.60
2016,10,15,05,56,4.80
2016,10,15,05,57,4.80
2016,10,15,05,58,9.60
2016,10,15,05,59,8.10
2016,10,15,06,00,4.80
2016,10,15,06,01,8.10
2016,10,15,06,02,3.20
2016,10,15,06,03,1.60
2016,10,15,06,04,4.80
2016,10,15,06,05,4.80
2016,10,15,06,06,8.10
2016,10,15,06,07,12.90
2016,10,15,06,08,9.60
2016,10,15,06,09,4.80
2016,10,15,06,10,6.40
2016,10,15,06,11,4.80
2016,10,15,06,12,8.10
2016,10,15,06,13,4.80
2016,10,15,06,14,4.80
2016,10,15,06,15,11.30
2016,10,15,06,16,11.30
2016,10,15,06,17,1.60
2016,10,15,06,18,8.10
2016,10,15,06,19,4.80
2016,10,15,06,20,11.30
2016,10,15,06,21,6.40
2016,10,15,06,22,6.40
2016,10,15,06,23,3.20
2016,10,15,06,24,9.60
2016,10,15,06,25,9.60
2016,10,15,06,26,3.20
2016,10,15,06,27,11.30
2016,10,15,06,28,4.80
2016,10,15,06,29,4.80
2016,10,15,06,30,9.60
2016,10,15,06,31,4.80
2016,10,15,06,32,4.80
2016,10,15,06,33,12.90
2016,10,15,06,34,12.90
2016,10,15,06,35,9.60
2016,10,15,06,36,3.20
2016,10,15,06,37,4.80
2016,10,15,06,38,3.20
2016,10,15,06,39,3.20
2016,10,15,06,40,4.80
2016,10,15,06,41,4.80
2016,10,15,06,42,3.20
2016,10,15,06,43,4.80
2016,10,15,06,44,9.60
2016,10,15,06,45,4.80
2016,10,15,06,46,8.10
2016,10,15,06,47,8.10
2016,10,15,06,48,14.50
2016,10,15,06,49,8.10
2016,10,15,06,50,4.80
2016,10,15,06,51,3.20
2016,10,15,06,52,3.20
2016,10,15,06,53,1.60
2016,10,15,06,54,14.50
2016,10,15,06,55,11.30
2016,10,15,06,56,4.80
2016,10,15,06,57,4.80
2016,10,15,06,58,6.40
2016,10,15,06,59,4.80
2016,10,15,07,00,6.40
2016,10,15,07,01,4.80
2016,10,15,07,02,4.80
2016,10,15,07,03,4.80
2016,10,15,07,04,6.40
2016,10,15,07,05,6.40
2016,10,15,07,06,4.80
2016,10,15,07,07,4.80
2016,10,15,07,08,4.80
2016,10,15,07,09,8.10
2016,10,15,07,10,8.10
2016,10,15,07,11,4.80
2016,10,15,07,12,6.40
2016,10,15,07,13,8.10
2016,10,15,07,14,4.80
2016,10,15,07,15,9.60
2016,10,15,07,16,4.80
2016,10,15,07,17,11.30
2016,10,15,07,18,11.30
2016,10,15,07,19,9.60
2016,10,15,07,20,4.80
2016,10,15,07,21,11.30
2016,10,15,07,22,8.10
2016,10,15,07,23,8.10
2016,10,15,07,24,6.40
2016,10,15,07,25,6.40
2016,10,15,07,26,3.20
2016,10,15,07,27,1.60
2016,10,15,07,28,4.80
2016,10,15,07,29,8.10
2016,10,15,07,30,3.20
2016,10,15,07,31,6.40
2016,10,15,07,32,8.10
2016,10,15,07,33,9.60
2016,10,15,07,34,9.60
2016,10,15,07,35,3.20
2016,10,15,07,36,6.40
2016,10,15,07,37,4.80
2016,10,15,07,38,6.40
2016,10,15,07,39,3.20
2016,10,15,07,41,6.40
2016,10,15,07,42,4.80
2016,10,15,07,43,6.40
2016,10,15,07,44,4.80
2016,10,15,07,45,9.60
2016,10,15,07,46,8.10
2016,10,15,07,47,8.10
2016,10,15,07,48,4.80
2016,10,15,07,49,4.80
2016,10,15,07,50,4.80
2016,10,15,07,51,4.80
2016,10,15,07,52,4.80
2016,10,15,07,53,8.10
2016,10,15,07,54,8.10
2016,10,15,07,55,3.20
2016,10,15,07,56,4.80
2016,10,15,07,57,3.20
2016,10,15,07,58,3.20
2016,10,15,07,59,3.20
2016,10,15,08,00,3.20
2016,10,15,08,01,12.90
2016,10,15,08,02,9.60
2016,10,15,08,03,1.60
2016,10,15,08,04,4.80
2016,10,15,08,05,11.30
2016,10,15,08,06,12.90
2016,10,15,08,07,6.40
2016,10,15,08,08,12.90
2016,10,15,08,09,9.60
2016,10,15,08,10,9.60
2016,10,15,08,11,8.10
2016,10,15,08,12,12.90
2016,10,15,08,13,11.30
2016,10,15,08,14,6.40
2016,10,15,08,15,11.30
2016,10,15,08,16,8.10
2016,10,15,08,17,6.40
2016,10,15,08,18,4.80
2016,10,15,08,19,4.80
2016,10,15,08,20,6.40
2016,10,15,08,21,9.60
2016,10,15,08,22,11.30
2016,10,15,08,23,12.90
2016,10,15,08,24,8.10
2016,10,15,08,25,4.80
2016,10,15,08,26,6.40
2016,10,15,08,27,8.10
2016,10,15,08,28,4.80
2016,10,15,08,29,14.50
2016,10,15,08,30,14.50
2016,10,15,08,31,6.40
2016,10,15,08,32,3.20
2016,10,15,08,33,11.30
2016,10,15,08,34,11.30
2016,10,15,08,35,4.80
2016,10,15,08,36,4.80
2016,10,15,08,37,8.10
2016,10,15,08,38,8.10
2016,10,15,08,39,6.40
2016,10,15,08,40,6.40
2016,10,15,08,41,6.40
2016,10,15,08,42,4.80
2016,10,15,08,43,4.80
2016,10,15,08,44,4.80
2016,10,15,08,45,8.10
2016,10,15,08,46,4.80
2016,10,15,08,47,3.20
2016,10,15,08,48,9.60
2016,10,15,08,49,20.90
2016,10,15,08,50,11.30
2016,10,15,08,51,11.30
2016,10,15,08,52,8.10
2016,10,15,08,53,9.60
2016,10,15,08,54,6.40
2016,10,15,08,55,11.30
2016,10,15,08,56,9.60
2016,10,15,08,57,9.60
2016,10,15,08,58,4.80
2016,10,15,08,59,4.80
2016,10,15,09,00,4.80
2016,10,15,09,01,6.40
2016,10,15,09,02,9.60
2016,10,15,09,03,12.90
2016,10,15,09,04,4.80
2016,10,15,09,05,6.40
2016,10,15,09,06,6.40
2016,10,15,09,07,6.40
2016,10,15,09,08,6.40
2016,10,15,09,09,6.40
2016,10,15,09,10,8.10
2016,10,15,09,11,12.90
2016,10,15,09,12,6.40
2016,10,15,09,13,4.80
2016,10,15,09,14,6.40
2016,10,15,09,15,8.10
2016,10,15,09,16,11.30
2016,10,15,09,17,8.10
2016,10,15,09,18,8.10
2016,10,15,09,19,8.10
2016,10,15,09,20,6.40
2016,10,15,09,21,8.10
2016,10,15,09,22,12.90
2016,10,15,09,23,8.10
2016,10,15,09,24,11.30
2016,10,15,09,25,4.80
2016,10,15,09,26,6.40
2016,10,15,09,27,6.40
2016,10,15,09,28,6.40
2016,10,15,09,29,3.20
2016,10,15,09,30,3.20
2016,10,15,09,31,6.40
2016,10,15,09,32,8.10
2016,10,15,09,33,8.10
2016,10,15,09,34,8.10
2016,10,15,09,35,8.10
2016,10,15,09,36,4.80
2016,10,15,09,37,4.80
2016,10,15,09,38,4.80
2016,10,15,09,39,11.30
2016,10,15,09,40,6.40
2016,10,15,09,41,16.10
2016,10,15,09,42,8.10
2016,10,15,09,43,8.10
2016,10,15,09,44,6.40
2016,10,15,09,45,12.90
2016,10,15,09,46,11.30
2016,10,15,09,47,8.10
2016,10,15,09,48,8.10
2016,10,15,09,49,8.10
2016,10,15,09,50,6.40
2016,10,15,09,51,12.90
2016,10,15,09,52,6.40
2016,10,15,09,53,6.40
2016,10,15,09,54,11.30
2016,10,15,09,55,11.30
2016,10,15,09,56,6.40
2016,10,15,09,57,4.80
2016,10,15,09,58,11.30
2016,10,15,09,59,9.60
2016,10,15,10,00,11.30
2016,10,15,10,01,6.40
2016,10,15,10,02,4.80
2016,10,15,10,03,12.90
2016,10,15,10,04,6.40
2016,10,15,10,05,9.60
2016,10,15,10,06,4.80
2016,10,15,10,07,6.40
2016,10,15,10,08,11.30
2016,10,15,10,09,8.10
2016,10,15,10,10,4.80
2016,10,15,10,11,8.10
2016,10,15,10,12,11.30
2016,10,15,10,13,12.90
2016,10,15,10,14,11.30
2016,10,15,10,15,6.40
2016,10,15,10,16,11.30
2016,10,15,10,17,6.40
2016,10,15,10,18,3.20
2016,10,15,10,19,4.80
2016,10,15,10,20,3.20
2016,10,15,10,21,6.40
2016,10,15,10,22,8.10
2016,10,15,10,23,1.60
2016,10,15,10,24,3.20
2016,10,15,10,25,14.50
2016,10,15,10,26,8.10
2016,10,15,10,27,11.30
2016,10,15,10,28,8.10
2016,10,15,10,29,4.80
2016,10,15,10,30,4.80
2016,10,15,10,31,4.80
2016,10,15,10,32,4.80
2016,10,15,10,33,3.20
2016,10,15,10,34,4.80
2016,10,15,10,35,14.50
2016,10,15,10,36,8.10
2016,10,15,10,37,3.20
2016,10,15,10,38,8.10
2016,10,15,10,39,9.60
2016,10,15,10,40,8.10
2016,10,15,10,41,4.80
2016,10,15,10,42,6.40
2016,10,15,10,43,1.60
2016,10,15,10,44,9.60
2016,10,15,10,45,9.60
2016,10,15,10,46,4.80
2016,10,15,10,47,11.30
2016,10,15,10,48,12.90
2016,10,15,10,49,6.40
2016,10,15,10,50,11.30
2016,10,15,10,51,8.10
2016,10,15,10,52,4.80
2016,10,15,10,53,8.10
2016,10,15,10,54,1.60
2016,10,15,10,55,4.80
2016,10,15,10,56,12.90
2016,10,15,10,57,9.60
2016,10,15,10,58,6.40
2016,10,15,10,59,4.80
2016,10,15,11,00,6.40
2016,10,15,11,01,6.40
2016,10,15,11,02,4.80
2016,10,15,11,03,8.10
2016,10,15,11,04,3.20
2016,10,15,11,05,3.20
2016,10,15,11,06,6.40
2016,10,15,11,07,6.40
2016,10,15,11,08,9.60
2016,10,15,11,09,12.90
2016,10,15,11,10,9.60
2016,10,15,11,11,6.40
2016,10,15,11,12,11.30
2016,10,15,11,13,6.40
2016,10,15,11,14,6.40
2016,10,15,11,15,6.40
2016,10,15,11,16,8.10
2016,10,15,11,17,12.90
2016,10,15,11,18,8.10
2016,10,15,11,19,16.10
2016,10,15,11,20,17.70
2016,10,15,11,21,8.10
2016,10,15,11,22,3.20
2016,10,15,11,23,9.60
2016,10,15,11,24,8.10
2016,10,15,11,25,14.50
2016,10,15,11,26,14.50
2016,10,15,11,27,11.30
2016,10,15,11,28,17.70
2016,10,15,11,29,8.10
2016,10,15,11,30,9.60
2016,10,15,11,31,11.30
2016,10,15,11,32,4.80
2016,10,15,11,33,8.10
2016,10,15,11,34,9.60
2016,10,15,11,35,8.10
2016,10,15,11,36,6.40
2016,10,15,11,37,8.10
2016,10,15,11,38,11.30
2016,10,15,11,39,9.60
2016,10,15,11,40,3.20
2016,10,15,11,41,1.60
2016,10,15,11,42,6.40
2016,10,15,11,43,4.80
2016,10,15,11,44,4.80
2016,10,15,11,45,8.10
2016,10,15,11,46,8.10
2016,10,15,11,47,4.80
2016,10,15,11,48,14.50
2016,10,15,11,49,16.10
2016,10,15,11,50,9.60
2016,10,15,11,51,6.40
2016,10,15,11,52,11.30
2016,10,15,11,53,9.60
2016,10,15,11,54,11.30
2016,10,15,11,55,8.10
2016,10,15,11,56,3.20
2016,10,15,11,57,8.10
2016,10,15,11,58,14.50
2016,10,15,11,59,9.60
2016,10,15,12,00,17.70
2016,10,15,12,01,12.90
2016,10,15,12,02,8.10
2016,10,15,12,03,8.10
2016,10,15,12,04,11.30
2016,10,15,12,05,17.70
2016,10,15,12,06,9.60
2016,10,15,12,07,11.30
2016,10,15,12,08,9.60
2016,10,15,12,09,4.80
2016,10,15,12,10,8.10
2016,10,15,12,11,12.90
2016,10,15,12,12,11.30
2016,10,15,12,13,6.40
2016,10,15,12,14,11.30
2016,10,15,12,15,20.90
2016,10,15,12,16,14.50
2016,10,15,12,17,14.50
2016,10,15,12,18,12.90
2016,10,15,12,19,9.60
2016,10,15,12,20,6.40
2016,10,15,12,21,16.10
2016,10,15,12,22,12.90
2016,10,15,12,23,16.10
2016,10,15,12,24,16.10
2016,10,15,12,25,22.50
2016,10,15,12,26,16.10
2016,10,15,12,27,8.10
2016,10,15,12,28,16.10
2016,10,15,12,29,6.40
2016,10,15,12,30,11.30
2016,10,15,12,31,14.50
2016,10,15,12,32,11.30
2016,10,15,12,33,11.30
2016,10,15,12,34,19.30
2016,10,15,12,35,17.70
2016,10,15,12,36,14.50
2016,10,15,12,37,12.90
2016,10,15,12,38,12.90
2016,10,15,12,39,9.60
2016,10,15,12,40,9.60
2016,10,15,12,41,17.70
2016,10,15,12,42,17.70
2016,10,15,12,43,11.30
2016,10,15,12,44,9.60
2016,10,15,12,45,12.90
2016,10,15,12,46,11.30
2016,10,15,12,47,9.60
2016,10,15,12,48,9.60
2016,10,15,12,49,6.40
2016,10,15,12,50,4.80
2016,10,15,12,51,9.60
2016,10,15,12,52,9.60
2016,10,15,12,53,16.10
2016,10,15,12,54,16.10
2016,10,15,12,55,22.50
2016,10,15,12,56,24.20
2016,10,15,12,57,17.70
2016,10,15,12,58,14.50
2016,10,15,12,59,16.10
2016,10,15,13,00,11.30
2016,10,15,13,01,9.60
2016,10,15,13,02,12.90
2016,10,15,13,03,9.60
2016,10,15,13,04,8.10
2016,10,15,13,05,17.70
2016,10,15,13,06,17.70
2016,10,15,13,07,12.90
2016,10,15,13,08,12.90
2016,10,15,13,09,29.00
2016,10,15,13,10,11.30
2016,10,15,13,11,16.10
2016,10,15,13,12,27.40
2016,10,15,13,13,14.50
2016,10,15,13,14,12.90
2016,10,15,13,15,9.60
2016,10,15,13,16,8.10
2016,10,15,13,17,22.50
2016,10,15,13,18,17.70
2016,10,15,13,19,14.50
2016,10,15,13,20,12.90
2016,10,15,13,21,12.90
2016,10,15,13,22,17.70
2016,10,15,13,23,33.80
2016,10,15,13,24,24.20
2016,10,15,13,25,17.70
2016,10,15,13,26,14.50
2016,10,15,13,27,16.10
2016,10,15,13,28,16.10
2016,10,15,13,29,24.20
2016,10,15,13,30,17.70
2016,10,15,13,31,19.30
2016,10,15,13,32,16.10
2016,10,15,13,33,12.90
2016,10,15,13,34,11.30
2016,10,15,13,35,11.30
2016,10,15,13,36,8.10
2016,10,15,13,37,12.90
2016,10,15,13,38,8.10
2016,10,15,13,39,8.10
2016,10,15,13,40,8.10
2016,10,15,13,41,14.50
2016,10,15,13,42,14.50
2016,10,15,13,43,12.90
2016,10,15,13,44,17.70
2016,10,15,13,45,11.30
2016,10,15,13,46,12.90
2016,10,15,13,47,11.30
2016,10,15,13,48,14.50
2016,10,15,13,49,14.50
2016,10,15,13,50,20.90
2016,10,15,13,51,9.60
2016,10,15,13,52,16.10
2016,10,15,13,53,14.50
2016,10,15,13,54,9.60
2016,10,15,13,55,12.90
2016,10,15,13,56,16.10
2016,10,15,13,57,12.90
2016,10,15,13,58,9.60
2016,10,15,13,59,12.90
2016,10,15,14,00,14.50
2016,10,15,14,01,14.50
2016,10,15,14,02,14.50
2016,10,15,14,03,12.90
2016,10,15,14,04,16.10
2016,10,15,14,05,14.50
2016,10,15,14,06,24.20
2016,10,15,14,07,17.70
2016,10,15,14,08,16.10
2016,10,15,14,09,12.90
2016,10,15,14,10,20.90
2016,10,15,14,11,14.50
2016,10,15,14,12,19.30
2016,10,15,14,13,16.10
2016,10,15,14,14,20.90
2016,10,15,14,15,11.30
2016,10,15,14,16,17.70
2016,10,15,14,17,19.30
2016,10,15,14,18,11.30
2016,10,15,14,19,20.90
2016,10,15,14,20,22.50
2016,10,15,14,21,27.40
2016,10,15,14,22,25.70
2016,10,15,14,23,16.10
2016,10,15,14,24,24.20
2016,10,15,14,25,22.50
2016,10,15,14,26,35.40
2016,10,15,14,27,27.40
2016,10,15,14,28,24.20
2016,10,15,14,29,25.70
2016,10,15,14,30,14.50
2016,10,15,14,31,19.30
2016,10,15,14,32,12.90
2016,10,15,14,33,24.20
2016,10,15,14,34,17.70
2016,10,15,14,35,22.50
2016,10,15,14,36,17.70
2016,10,15,14,37,27.40
2016,10,15,14,38,22.50
2016,10,15,14,39,33.80
2016,10,15,14,40,27.40
2016,10,15,14,41,29.00
2016,10,15,14,42,16.10
2016,10,15,14,43,16.10
2016,10,15,14,44,16.10
2016,10,15,14,45,12.90
2016,10,15,14,46,9.60
2016,10,15,14,47,4.80
2016,10,15,14,48,25.70
2016,10,15,14,49,27.40
2016,10,15,14,50,16.10
2016,10,15,14,51,17.70
2016,10,15,14,52,20.90
2016,10,15,14,53,14.50
2016,10,15,14,54,22.50
2016,10,15,14,55,20.90
2016,10,15,14,56,38.60
2016,10,15,14,57,29.00
2016,10,15,14,58,22.50
2016,10,15,14,59,14.50
2016,10,15,15,00,24.20
2016,10,15,15,01,19.30
2016,10,15,15,02,27.40
2016,10,15,15,03,29.00
2016,10,15,15,04,14.50
2016,10,15,15,05,29.00
2016,10,15,15,06,25.70
2016,10,15,15,07,29.00
2016,10,15,15,08,32.20
2016,10,15,15,09,22.50
2016,10,15,15,10,24.20
2016,10,15,15,11,20.90
2016,10,15,15,12,25.70
2016,10,15,15,13,17.70
2016,10,15,15,14,35.40
2016,10,15,15,15,25.70
2016,10,15,15,16,24.20
2016,10,15,15,17,33.80
2016,10,15,15,18,16.10
2016,10,15,15,19,22.50
2016,10,15,15,20,16.10
2016,10,15,15,21,22.50
2016,10,15,15,22,22.50
2016,10,15,15,23,24.20
2016,10,15,15,24,27.40
2016,10,15,15,25,27.40
2016,10,15,15,26,19.30
2016,10,15,15,27,20.90
2016,10,15,15,28,22.50
2016,10,15,15,29,24.20
2016,10,15,15,30,33.80
2016,10,15,15,31,35.40
2016,10,15,15,32,24.20
2016,10,15,15,33,27.40
2016,10,15,15,34,30.60
2016,10,15,15,35,25.70
2016,10,15,15,36,22.50
2016,10,15,15,37,24.20
2016,10,15,15,38,20.90
2016,10,15,15,39,17.70
2016,10,15,15,40,25.70
2016,10,15,15,41,30.60
2016,10,15,15,42,25.70
2016,10,15,15,43,32.20
2016,10,15,15,44,25.70
2016,10,15,15,45,35.40
2016,10,15,15,46,29.00
2016,10,15,15,47,22.50
2016,10,15,15,48,20.90
2016,10,15,15,49,40.20
2016,10,15,15,50,25.70
2016,10,15,15,51,25.70
2016,10,15,15,52,27.40
2016,10,15,15,53,24.20
2016,10,15,15,54,30.60
2016,10,15,15,55,37.00
2016,10,15,15,56,37.00
2016,10,15,15,57,27.40
2016,10,15,15,58,20.90
2016,10,15,15,59,17.70
2016,10,15,16,00,12.90
2016,10,15,16,01,14.50
2016,10,15,16,02,24.20
2016,10,15,16,03,14.50
2016,10,15,16,04,20.90
2016,10,15,16,05,17.70
2016,10,15,16,06,20.90
2016,10,15,16,07,33.80
2016,10,15,16,08,25.70
2016,10,15,16,09,27.40
2016,10,15,16,10,24.20
2016,10,15,16,11,20.90
2016,10,15,16,12,16.10
2016,10,15,16,13,17.70
2016,10,15,16,14,17.70
2016,10,15,16,15,22.50
2016,10,15,16,16,22.50
2016,10,15,16,17,11.30
2016,10,15,16,18,16.10
2016,10,15,16,19,17.70
2016,10,15,16,20,29.00
2016,10,15,16,21,14.50
2016,10,15,16,22,29.00
2016,10,15,16,23,35.40
2016,10,15,16,24,35.40
2016,10,15,16,25,35.40
2016,10,15,16,26,24.20
2016,10,15,16,27,29.00
2016,10,15,16,28,22.50
2016,10,15,16,29,25.70
2016,10,15,16,30,22.50
2016,10,15,16,31,17.70
2016,10,15,16,32,24.20
2016,10,15,16,33,22.50
2016,10,15,16,34,22.50
2016,10,15,16,35,22.50
2016,10,15,16,36,24.20
2016,10,15,16,37,30.60
2016,10,15,16,38,29.00
2016,10,15,16,39,17.70
2016,10,15,16,40,16.10
2016,10,15,16,41,22.50
2016,10,15,16,42,16.10
2016,10,15,16,43,32.20
2016,10,15,16,44,29.00
2016,10,15,16,45,25.70
2016,10,15,16,46,33.80
2016,10,15,16,47,17.70
2016,10,15,16,48,17.70
2016,10,15,16,49,29.00
2016,10,15,16,50,22.50
2016,10,15,16,51,30.60
2016,10,15,16,52,16.10
2016,10,15,16,53,17.70
2016,10,15,16,54,17.70
2016,10,15,16,55,19.30
2016,10,15,16,56,24.20
2016,10,15,16,57,30.60
2016,10,15,16,58,33.80
2016,10,15,16,59,24.20
2016,10,15,17,00,29.00
2016,10,15,17,01,25.70
2016,10,15,17,02,25.70
2016,10,15,17,03,35.40
2016,10,15,17,04,35.40
2016,10,15,17,05,24.20
2016,10,15,17,06,32.20
2016,10,15,17,07,27.40
2016,10,15,17,08,20.90
2016,10,15,17,09,24.20
2016,10,15,17,10,37.00
2016,10,15,17,11,17.70
2016,10,15,17,12,25.70
2016,10,15,17,13,14.50
2016,10,15,17,14,19.30
2016,10,15,17,15,27.40
2016,10,15,17,16,14.50
2016,10,15,17,17,20.90
2016,10,15,17,18,19.30
2016,10,15,17,19,22.50
2016,10,15,17,20,17.70
2016,10,15,17,21,19.30
2016,10,15,17,22,20.90
2016,10,15,17,23,19.30
2016,10,15,17,24,20.90
2016,10,15,17,25,11.30
2016,10,15,17,26,9.60
2016,10,15,17,27,20.90
2016,10,15,17,28,16.10
2016,10,15,17,29,19.30
2016,10,15,17,30,17.70
2016,10,15,17,31,20.90
2016,10,15,17,32,14.50
2016,10,15,17,33,22.50
2016,10,15,17,34,22.50
2016,10,15,17,35,22.50
2016,10,15,17,36,30.60
2016,10,15,17,37,14.50
2016,10,15,17,38,20.90
2016,10,15,17,39,20.90
2016,10,15,17,40,22.50
2016,10,15,17,41,16.10
2016,10,15,17,42,20.90
2016,10,15,17,43,14.50
2016,10,15,17,44,14.50
2016,10,15,17,45,22.50
2016,10,15,17,46,8.10
2016,10,15,17,47,12.90
2016,10,15,17,48,11.30
2016,10,15,17,49,14.50
2016,10,15,17,50,16.10
2016,10,15,17,51,4.80
2016,10,15,17,52,8.10
2016,10,15,17,53,16.10
2016,10,15,17,54,27.40